Time,TemperatureF,DewpointF,PressureIn,WindDirection,WindDirectionDegrees,WindSpeedMPH,WindSpeedGustMPH,Humidity,HourlyPrecipIn,Conditions,Clouds,dailyrainin,SoftwareType,DateUTC
2013-10-26 00:00:00,33.2,28.0,30.29,SSW,203,0.0,0.0,81,0.00,,,0.00,WUHU216HW,2013-10-26 04:00:00,
2013-10-26 00:06:00,33.2,27.8,30.29,SSW,203,0.0,0.0,81,0.00,,,0.00,WUHU216HW,2013-10-26 04:06:00,
2013-10-26 00:12:00,33.0,27.8,30.29,SSW,203,0.0,0.0,81,0.00,,,0.00,WUHU216HW,2013-10-26 04:12:00,
2013-10-26 00:17:00,32.9,27.6,30.28,SSW,203,0.0,0.0,81,0.00,,,0.00,WUHU216HW,2013-10-26 04:17:00,
2013-10-26 00:22:00,32.9,27.9,30.28,SSW,203,0.0,0.0,82,0.00,,,0.00,WUHU216HW,2013-10-26 04:22:00,
2013-10-26 00:27:00,32.9,27.9,30.28,SSW,203,0.0,0.0,82,0.00,,,0.00,WUHU216HW,2013-10-26 04:27:00,
2013-10-26 00:33:00,32.7,27.8,30.28,SSW,203,0.0,0.0,82,0.00,,,0.00,WUHU216HW,2013-10-26 04:33:00,
2013-10-26 00:39:00,32.7,27.8,30.28,SSW,203,0.0,0.0,82,0.00,,,0.00,WUHU216HW,2013-10-26 04:39:00,
2013-10-26 00:45:00,32.5,27.6,30.28,SSW,203,0.0,0.0,82,0.00,,,0.00,WUHU216HW,2013-10-26 04:45:00,
2013-10-26 00:50:00,32.5,27.6,30.28,SSW,203,0.0,0.0,82,0.00,,,0.00,WUHU216HW,2013-10-26 04:50:00,
2013-10-26 00:56:00,32.1,27.6,30.28,SSW,203,0.0,0.0,83,0.00,,,0.00,WUHU216HW,2013-10-26 04:56:00,
2013-10-26 01:01:00,32.1,27.6,30.28,SSW,203,0.0,0.0,83,0.00,,,0.00,WUHU216HW,2013-10-26 05:01:00,
2013-10-26 01:07:00,32.1,27.6,30.28,SSW,203,0.0,0.0,83,0.00,,,0.00,WUHU216HW,2013-10-26 05:07:00,
2013-10-26 01:12:00,32.1,27.6,30.28,SSW,203,0.0,0.0,83,0.00,,,0.00,WUHU216HW,2013-10-26 05:12:00,
2013-10-26 01:18:00,31.8,27.5,30.28,SSW,203,0.0,0.0,84,0.00,,,0.00,WUHU216HW,2013-10-26 05:18:00,
2013-10-26 01:23:00,31.8,27.5,30.28,SSW,203,0.0,0.0,84,0.00,,,0.00,WUHU216HW,2013-10-26 05:23:00,
2013-10-26 01:29:00,31.8,27.5,30.28,SSW,203,0.0,0.0,84,0.00,,,0.00,WUHU216HW,2013-10-26 05:29:00,
2013-10-26 01:34:00,31.8,27.5,30.28,SSW,203,0.0,0.0,84,0.00,,,0.00,WUHU216HW,2013-10-26 05:34:00,
2013-10-26 01:39:00,31.8,27.5,30.28,SSW,203,0.0,0.0,84,0.00,,,0.00,WUHU216HW,2013-10-26 05:39:00,
2013-10-26 01:44:00,31.8,27.5,30.28,SSW,203,0.0,0.0,84,0.00,,,0.00,WUHU216HW,2013-10-26 05:44:00,
2013-10-26 01:50:00,31.8,27.5,30.28,SSW,203,0.0,0.0,84,0.00,,,0.00,WUHU216HW,2013-10-26 05:50:00,
2013-10-26 01:56:00,31.8,27.8,30.28,SSW,203,0.0,0.0,85,0.00,,,0.00,WUHU216HW,2013-10-26 05:56:00,
2013-10-26 02:01:00,31.6,27.6,30.28,SSW,203,0.0,0.0,85,0.00,,,0.00,WUHU216HW,2013-10-26 06:01:00,
2013-10-26 02:06:00,31.6,27.6,30.28,SSW,203,0.0,0.0,85,0.00,,,0.00,WUHU216HW,2013-10-26 06:06:00,
2013-10-26 02:12:00,31.6,27.6,30.28,SSW,203,0.0,0.0,85,0.00,,,0.00,WUHU216HW,2013-10-26 06:12:00,
2013-10-26 02:17:00,31.6,27.6,30.27,SSW,203,0.0,0.0,85,0.00,,,0.00,WUHU216HW,2013-10-26 06:17:00,
2013-10-26 02:23:00,31.6,27.6,30.27,SSW,203,0.0,0.0,85,0.00,,,0.00,WUHU216HW,2013-10-26 06:23:00,
2013-10-26 02:29:00,31.6,27.9,30.27,SSW,203,0.0,0.0,86,0.00,,,0.00,WUHU216HW,2013-10-26 06:29:00,
2013-10-26 02:34:00,31.4,27.7,30.27,SSW,203,0.0,0.0,86,0.00,,,0.00,WUHU216HW,2013-10-26 06:34:00,
2013-10-26 02:40:00,31.2,27.6,30.27,SSW,203,0.0,0.0,86,0.00,,,0.00,WUHU216HW,2013-10-26 06:40:00,
2013-10-26 02:45:00,31.2,27.6,30.27,SSW,203,0.0,0.0,86,0.00,,,0.00,WUHU216HW,2013-10-26 06:45:00,
2013-10-26 02:51:00,31.2,27.6,30.27,SSW,203,0.0,0.0,86,0.00,,,0.00,WUHU216HW,2013-10-26 06:51:00,
2013-10-26 02:56:00,31.1,27.4,30.27,SSW,203,0.0,0.0,86,0.00,,,0.00,WUHU216HW,2013-10-26 06:56:00,
2013-10-26 03:02:00,30.9,27.2,30.27,SSW,203,0.0,0.0,86,0.00,,,0.00,WUHU216HW,2013-10-26 07:02:00,
2013-10-26 03:08:00,30.9,27.2,30.27,SSW,203,0.0,0.0,86,0.00,,,0.00,WUHU216HW,2013-10-26 07:08:00,
2013-10-26 03:14:00,30.9,27.2,30.26,SSW,203,0.0,0.0,86,0.00,,,0.00,WUHU216HW,2013-10-26 07:14:00,
2013-10-26 03:20:00,30.7,27.0,30.26,SSW,203,0.0,0.0,86,0.00,,,0.00,WUHU216HW,2013-10-26 07:20:00,
2013-10-26 03:25:00,30.7,27.0,30.26,SSW,203,0.0,0.0,86,0.00,,,0.00,WUHU216HW,2013-10-26 07:25:00,
2013-10-26 03:30:00,30.9,27.2,30.26,SSW,203,0.0,0.0,86,0.00,,,0.00,WUHU216HW,2013-10-26 07:30:00,
2013-10-26 03:35:00,30.9,27.2,30.26,SSW,203,0.0,0.0,86,0.00,,,0.00,WUHU216HW,2013-10-26 07:35:00,
2013-10-26 03:41:00,31.1,27.7,30.25,SSW,203,0.0,0.0,87,0.00,,,0.00,WUHU216HW,2013-10-26 07:41:00,
2013-10-26 03:47:00,31.2,27.8,30.25,SSW,203,0.0,0.0,87,0.00,,,0.00,WUHU216HW,2013-10-26 07:47:00,
2013-10-26 03:53:00,31.2,27.8,30.25,SSW,203,0.0,0.0,87,0.00,,,0.00,WUHU216HW,2013-10-26 07:53:00,
2013-10-26 03:59:00,31.2,27.8,30.25,SSW,203,0.0,0.0,87,0.00,,,0.00,WUHU216HW,2013-10-26 07:59:00,
2013-10-26 04:04:00,31.6,28.5,30.25,SSW,203,0.0,0.0,88,0.00,,,0.00,WUHU216HW,2013-10-26 08:04:00,
2013-10-26 04:10:00,31.6,28.5,30.25,NNE,23,0.0,0.0,88,0.00,,,0.00,WUHU216HW,2013-10-26 08:10:00,
2013-10-26 04:16:00,31.6,28.5,30.24,NNE,23,0.0,0.0,88,0.00,,,0.00,WUHU216HW,2013-10-26 08:16:00,
2013-10-26 04:21:00,31.8,28.7,30.24,NNE,23,0.0,0.0,88,0.00,,,0.00,WUHU216HW,2013-10-26 08:21:00,
2013-10-26 04:26:00,31.8,28.7,30.24,NNE,23,0.0,0.0,88,0.00,,,0.00,WUHU216HW,2013-10-26 08:26:00,
2013-10-26 04:32:00,31.8,28.7,30.24,NNE,23,0.0,0.0,88,0.00,,,0.00,WUHU216HW,2013-10-26 08:32:00,
2013-10-26 04:37:00,31.8,28.7,30.24,NNE,23,0.0,0.0,88,0.00,,,0.00,WUHU216HW,2013-10-26 08:37:00,
2013-10-26 04:42:00,31.8,28.7,30.23,NNE,23,0.0,0.0,88,0.00,,,0.00,WUHU216HW,2013-10-26 08:42:00,
2013-10-26 04:48:00,31.8,28.7,30.23,NNE,23,0.0,0.0,88,0.00,,,0.00,WUHU216HW,2013-10-26 08:48:00,
2013-10-26 04:54:00,32.0,28.9,30.23,NNE,23,0.0,0.0,88,0.00,,,0.00,WUHU216HW,2013-10-26 08:54:00,
2013-10-26 05:00:00,32.1,29.3,30.23,NNE,23,0.0,0.0,89,0.00,,,0.00,WUHU216HW,2013-10-26 09:00:00,
2013-10-26 05:05:00,32.1,29.3,30.23,NNE,23,0.0,0.0,89,0.00,,,0.00,WUHU216HW,2013-10-26 09:05:00,
2013-10-26 05:11:00,32.1,29.3,30.22,NNE,23,0.0,0.0,89,0.00,,,0.00,WUHU216HW,2013-10-26 09:11:00,
2013-10-26 05:17:00,32.1,29.0,30.22,NNE,23,0.0,0.0,88,0.00,,,0.00,WUHU216HW,2013-10-26 09:17:00,
2013-10-26 05:23:00,32.1,29.0,30.21,NNE,23,0.0,0.0,88,0.00,,,0.00,WUHU216HW,2013-10-26 09:23:00,
2013-10-26 05:29:00,32.1,29.0,30.22,NNE,23,0.0,0.0,88,0.00,,,0.00,WUHU216HW,2013-10-26 09:29:00,
2013-10-26 05:34:00,32.1,29.0,30.22,NNE,23,0.0,0.0,88,0.00,,,0.00,WUHU216HW,2013-10-26 09:34:00,
2013-10-26 05:40:00,32.1,29.3,30.21,NNE,23,0.0,0.0,89,0.00,,,0.00,WUHU216HW,2013-10-26 09:40:00,
2013-10-26 05:45:00,32.1,29.3,30.21,NNE,23,0.0,0.0,89,0.00,,,0.00,WUHU216HW,2013-10-26 09:45:00,
2013-10-26 05:51:00,32.1,29.3,30.21,NNE,23,0.0,0.0,89,0.00,,,0.00,WUHU216HW,2013-10-26 09:51:00,
2013-10-26 05:57:00,32.1,29.3,30.21,NNE,23,0.0,0.0,89,0.00,,,0.00,WUHU216HW,2013-10-26 09:57:00,
2013-10-26 06:03:00,32.1,29.0,30.21,West,270,0.0,0.0,88,0.00,,,0.00,WUHU216HW,2013-10-26 10:03:00,
2013-10-26 06:09:00,32.1,29.3,30.21,North,0,0.0,0.0,89,0.00,,,0.00,WUHU216HW,2013-10-26 10:09:00,
2013-10-26 06:14:00,32.3,29.5,30.21,North,0,0.0,0.0,89,0.00,,,0.00,WUHU216HW,2013-10-26 10:14:00,
2013-10-26 06:20:00,32.1,29.3,30.21,North,0,0.0,0.0,89,0.00,,,0.00,WUHU216HW,2013-10-26 10:20:00,
2013-10-26 06:26:00,32.1,29.0,30.21,North,0,0.0,0.0,88,0.00,,,0.00,WUHU216HW,2013-10-26 10:26:00,
2013-10-26 06:31:00,32.1,29.3,30.21,North,0,0.0,0.0,89,0.00,,,0.00,WUHU216HW,2013-10-26 10:31:00,
2013-10-26 06:37:00,32.1,29.3,30.21,North,0,0.0,0.0,89,0.00,,,0.00,WUHU216HW,2013-10-26 10:37:00,
2013-10-26 06:42:00,32.1,29.3,30.21,North,0,0.0,0.0,89,0.00,,,0.00,WUHU216HW,2013-10-26 10:42:00,
2013-10-26 06:47:00,32.1,29.3,30.21,North,0,0.0,0.0,89,0.00,,,0.00,WUHU216HW,2013-10-26 10:47:00,
2013-10-26 06:52:00,32.1,29.3,30.21,North,0,0.0,0.0,89,0.00,,,0.00,WUHU216HW,2013-10-26 10:52:00,
2013-10-26 06:58:00,32.0,29.1,30.21,North,0,0.0,0.0,89,0.00,,,0.00,WUHU216HW,2013-10-26 10:58:00,
2013-10-26 07:04:00,31.8,28.7,30.21,North,0,0.0,0.0,88,0.00,,,0.00,WUHU216HW,2013-10-26 11:04:00,
2013-10-26 07:09:00,31.8,28.7,30.21,North,0,0.0,0.0,88,0.00,,,0.00,WUHU216HW,2013-10-26 11:09:00,
2013-10-26 07:15:00,31.8,28.7,30.21,North,0,0.0,0.0,88,0.00,,,0.00,WUHU216HW,2013-10-26 11:15:00,
2013-10-26 07:20:00,31.8,28.7,30.21,North,0,0.0,0.0,88,0.00,,,0.00,WUHU216HW,2013-10-26 11:20:00,
2013-10-26 07:25:00,31.8,28.7,30.21,North,0,0.0,0.0,88,0.00,,,0.00,WUHU216HW,2013-10-26 11:25:00,
2013-10-26 07:31:00,31.8,28.7,30.21,North,0,0.0,0.0,88,0.00,,,0.00,WUHU216HW,2013-10-26 11:31:00,
2013-10-26 07:36:00,31.6,28.5,30.20,North,0,0.0,0.0,88,0.00,,,0.00,WUHU216HW,2013-10-26 11:36:00,
2013-10-26 07:41:00,31.6,28.5,30.20,North,0,0.0,0.0,88,0.00,,,0.00,WUHU216HW,2013-10-26 11:41:00,
2013-10-26 07:46:00,31.6,28.5,30.20,North,0,0.0,0.0,88,0.00,,,0.00,WUHU216HW,2013-10-26 11:46:00,
2013-10-26 07:51:00,31.2,28.1,30.19,North,0,0.0,0.0,88,0.00,,,0.00,WUHU216HW,2013-10-26 11:51:00,
2013-10-26 07:57:00,31.2,28.1,30.19,North,0,0.0,0.0,88,0.00,,,0.00,WUHU216HW,2013-10-26 11:57:00,
2013-10-26 08:02:00,31.6,28.5,30.19,North,0,0.0,0.0,88,0.00,,,0.00,WUHU216HW,2013-10-26 12:02:00,
2013-10-26 08:08:00,31.6,28.5,30.19,North,0,0.0,0.0,88,0.00,,,0.00,WUHU216HW,2013-10-26 12:08:00,
2013-10-26 08:14:00,31.8,28.7,30.19,NNE,23,0.0,0.0,88,0.00,,,0.00,WUHU216HW,2013-10-26 12:14:00,
2013-10-26 08:20:00,32.0,29.1,30.19,NNE,23,0.0,0.0,89,0.00,,,0.00,WUHU216HW,2013-10-26 12:20:00,
2013-10-26 08:26:00,32.1,29.3,30.19,NNE,23,0.0,0.0,89,0.00,,,0.00,WUHU216HW,2013-10-26 12:26:00,
2013-10-26 08:32:00,32.5,29.6,30.19,East,90,0.0,0.0,89,0.00,,,0.00,WUHU216HW,2013-10-26 12:32:00,
2013-10-26 08:37:00,32.7,29.8,30.19,ENE,68,0.0,0.0,89,0.00,,,0.00,WUHU216HW,2013-10-26 12:37:00,
2013-10-26 08:42:00,32.7,29.8,30.19,ESE,113,0.0,0.0,89,0.00,,,0.00,WUHU216HW,2013-10-26 12:42:00,
2013-10-26 08:48:00,33.0,30.1,30.18,NNE,23,0.0,0.0,89,0.00,,,0.00,WUHU216HW,2013-10-26 12:48:00,
2013-10-26 08:53:00,33.6,30.3,30.18,NW,315,0.0,0.0,88,0.00,,,0.00,WUHU216HW,2013-10-26 12:53:00,
2013-10-26 08:59:00,33.8,30.5,30.18,NW,315,0.0,0.0,88,0.00,,,0.00,WUHU216HW,2013-10-26 12:59:00,
2013-10-26 09:05:00,34.3,31.0,30.18,SSW,203,0.0,0.0,88,0.00,,,0.00,WUHU216HW,2013-10-26 13:05:00,
2013-10-26 09:10:00,34.3,30.7,30.18,SSW,203,0.0,0.0,87,0.00,,,0.00,WUHU216HW,2013-10-26 13:10:00,
2013-10-26 09:16:00,34.5,30.9,30.18,West,270,0.0,0.0,87,0.00,,,0.00,WUHU216HW,2013-10-26 13:16:00,
2013-10-26 09:22:00,35.0,31.4,30.18,WSW,248,0.0,0.0,87,0.00,,,0.00,WUHU216HW,2013-10-26 13:22:00,
2013-10-26 09:27:00,35.2,31.3,30.17,SSE,158,0.0,0.0,86,0.00,,,0.00,WUHU216HW,2013-10-26 13:27:00,
2013-10-26 09:32:00,35.6,31.7,30.18,West,270,0.0,0.0,86,0.00,,,0.00,WUHU216HW,2013-10-26 13:32:00,
2013-10-26 09:38:00,36.1,32.0,30.18,NNW,338,0.0,0.0,85,0.00,,,0.00,WUHU216HW,2013-10-26 13:38:00,
2013-10-26 09:43:00,36.3,31.8,30.18,WNW,293,0.0,0.0,84,0.00,,,0.00,WUHU216HW,2013-10-26 13:43:00,
2013-10-26 09:49:00,36.8,32.1,30.18,NW,315,3.3,3.3,83,0.00,,,0.00,WUHU216HW,2013-10-26 13:49:00,
2013-10-26 09:54:00,37.2,32.5,30.17,WSW,248,0.0,3.3,83,0.00,,,0.00,WUHU216HW,2013-10-26 13:54:00,
2013-10-26 09:59:00,37.5,32.5,30.17,NNW,338,0.0,3.3,82,0.00,,,0.00,WUHU216HW,2013-10-26 13:59:00,
2013-10-26 10:04:00,38.1,32.8,30.16,West,270,0.0,0.0,81,0.00,,,0.00,WUHU216HW,2013-10-26 14:04:00,
2013-10-26 10:10:00,38.4,33.0,30.16,West,270,0.0,0.0,80,0.00,,,0.00,WUHU216HW,2013-10-26 14:10:00,
2013-10-26 10:15:00,38.8,32.9,30.15,NW,315,0.0,0.0,79,0.00,,,0.00,WUHU216HW,2013-10-26 14:15:00,
2013-10-26 10:20:00,39.0,33.0,30.14,SE,135,0.0,0.0,79,0.00,,,0.00,WUHU216HW,2013-10-26 14:20:00,
2013-10-26 10:26:00,39.7,33.4,30.14,SSW,203,0.0,0.0,78,0.00,,,0.00,WUHU216HW,2013-10-26 14:26:00,
2013-10-26 10:32:00,40.2,33.2,30.13,NW,315,0.0,0.0,76,0.00,,,0.00,WUHU216HW,2013-10-26 14:32:00,
2013-10-26 10:38:00,40.8,34.0,30.12,NNE,23,0.0,3.1,77,0.00,,,0.00,WUHU216HW,2013-10-26 14:38:00,
2013-10-26 10:43:00,41.1,33.8,30.12,SW,225,0.0,3.1,75,0.00,,,0.00,WUHU216HW,2013-10-26 14:43:00,
2013-10-26 10:48:00,41.5,34.1,30.12,North,0,2.0,3.1,75,0.00,,,0.00,WUHU216HW,2013-10-26 14:48:00,
2013-10-26 10:53:00,41.9,33.8,30.11,North,0,0.0,3.1,73,0.00,,,0.00,WUHU216HW,2013-10-26 14:53:00,
2013-10-26 10:59:00,42.0,34.0,30.11,ENE,68,0.0,2.4,73,0.00,,,0.00,WUHU216HW,2013-10-26 14:59:00,
2013-10-26 11:04:00,42.8,34.4,30.11,WSW,248,4.0,4.0,72,0.00,,,0.00,WUHU216HW,2013-10-26 15:04:00,
2013-10-26 11:09:00,43.3,34.9,30.10,WSW,248,0.0,4.0,72,0.00,,,0.00,WUHU216HW,2013-10-26 15:09:00,
2013-10-26 11:14:00,43.5,34.7,30.10,North,0,0.0,4.0,71,0.00,,,0.00,WUHU216HW,2013-10-26 15:14:00,
2013-10-26 11:20:00,44.0,34.9,30.10,NW,315,0.0,0.0,70,0.00,,,0.00,WUHU216HW,2013-10-26 15:20:00,
2013-10-26 11:25:00,44.4,35.2,30.10,SW,225,3.1,3.1,70,0.00,,,0.00,WUHU216HW,2013-10-26 15:25:00,
2013-10-26 11:30:00,44.9,35.0,30.10,NE,45,0.0,3.1,68,0.00,,,0.00,WUHU216HW,2013-10-26 15:30:00,
2013-10-26 11:36:00,45.3,34.9,30.10,NNW,338,0.0,3.1,67,0.00,,,0.00,WUHU216HW,2013-10-26 15:36:00,
2013-10-26 11:41:00,45.6,35.3,30.09,ENE,68,0.0,0.0,67,0.00,,,0.00,WUHU216HW,2013-10-26 15:41:00,
2013-10-26 11:46:00,46.2,35.4,30.10,SSE,158,0.0,0.0,66,0.00,,,0.00,WUHU216HW,2013-10-26 15:46:00,
2013-10-26 11:52:00,46.5,35.4,30.09,SSE,158,2.0,2.0,65,0.00,,,0.00,WUHU216HW,2013-10-26 15:52:00,
2013-10-26 11:57:00,46.5,34.6,30.09,NW,315,0.0,2.0,63,0.00,,,0.00,WUHU216HW,2013-10-26 15:57:00,
2013-10-26 12:02:00,46.7,34.7,30.10,ENE,68,0.0,2.0,63,0.00,,,0.00,WUHU216HW,2013-10-26 16:02:00,
2013-10-26 12:08:00,46.7,34.7,30.09,NNW,338,0.0,0.0,63,0.00,,,0.00,WUHU216HW,2013-10-26 16:08:00,
2013-10-26 12:14:00,47.1,34.7,30.10,SSW,203,3.3,3.3,62,0.00,,,0.00,WUHU216HW,2013-10-26 16:14:00,
2013-10-26 12:19:00,47.1,34.3,30.09,West,270,0.0,3.3,61,0.00,,,0.00,WUHU216HW,2013-10-26 16:19:00,
2013-10-26 12:24:00,47.3,34.5,30.09,WSW,248,0.0,3.3,61,0.00,,,0.00,WUHU216HW,2013-10-26 16:24:00,
2013-10-26 12:30:00,47.4,34.3,30.09,West,270,0.0,0.0,60,0.00,,,0.00,WUHU216HW,2013-10-26 16:30:00,
2013-10-26 12:35:00,47.6,34.5,30.08,NNE,23,0.0,2.4,60,0.00,,,0.00,WUHU216HW,2013-10-26 16:35:00,
2013-10-26 12:40:00,48.2,35.0,30.08,NNW,338,0.0,2.4,60,0.00,,,0.00,WUHU216HW,2013-10-26 16:40:00,
2013-10-26 12:45:00,48.3,34.7,30.08,NW,315,0.0,2.9,59,0.00,,,0.00,WUHU216HW,2013-10-26 16:45:00,
2013-10-26 12:50:00,48.7,35.0,30.08,North,0,0.0,4.4,59,0.00,,,0.00,WUHU216HW,2013-10-26 16:50:00,
2013-10-26 12:55:00,48.9,34.9,30.07,WNW,293,0.0,4.4,58,0.00,,,0.00,WUHU216HW,2013-10-26 16:55:00,
2013-10-26 13:01:00,49.2,34.6,30.07,West,270,0.0,0.0,57,0.00,,,0.00,WUHU216HW,2013-10-26 17:01:00,
2013-10-26 13:06:00,49.8,34.7,30.06,WNW,293,0.0,0.0,56,0.00,,,0.00,WUHU216HW,2013-10-26 17:06:00,
2013-10-26 13:12:00,50.1,35.6,30.06,SW,225,1.3,1.3,57,0.00,,,0.00,WUHU216HW,2013-10-26 17:12:00,
2013-10-26 13:17:00,50.5,34.9,30.05,SE,135,0.0,1.3,55,0.00,,,0.00,WUHU216HW,2013-10-26 17:17:00,
2013-10-26 13:22:00,50.7,34.6,30.04,NE,45,0.0,1.3,54,0.00,,,0.00,WUHU216HW,2013-10-26 17:22:00,
2013-10-26 13:27:00,50.9,34.7,30.04,West,270,0.0,0.0,54,0.00,,,0.00,WUHU216HW,2013-10-26 17:27:00,
2013-10-26 13:33:00,51.0,34.9,30.03,ENE,68,0.0,0.0,54,0.00,,,0.00,WUHU216HW,2013-10-26 17:33:00,
2013-10-26 13:38:00,51.6,34.9,30.03,NNE,23,2.4,2.4,53,0.00,,,0.00,WUHU216HW,2013-10-26 17:38:00,
2013-10-26 13:44:00,51.9,35.3,30.02,WNW,293,0.0,2.4,53,0.00,,,0.00,WUHU216HW,2013-10-26 17:44:00,
2013-10-26 13:50:00,51.9,34.8,30.00,NNW,338,0.0,4.2,52,0.00,,,0.00,WUHU216HW,2013-10-26 17:50:00,
2013-10-26 13:55:00,52.1,34.5,30.00,SW,225,0.0,4.2,51,0.00,,,0.00,WUHU216HW,2013-10-26 17:55:00,
2013-10-26 14:00:00,52.3,34.2,30.00,NE,45,0.0,0.0,50,0.00,,,0.00,WUHU216HW,2013-10-26 18:00:00,
2013-10-26 14:05:00,52.7,35.0,30.01,SW,225,0.0,0.0,51,0.00,,,0.00,WUHU216HW,2013-10-26 18:05:00,
2013-10-26 14:11:00,53.2,35.0,30.01,SW,225,0.0,3.3,50,0.00,,,0.00,WUHU216HW,2013-10-26 18:11:00,
2013-10-26 14:22:00,54.1,35.9,30.00,SE,135,0.0,0.0,50,0.00,,,0.00,WUHU216HW,2013-10-26 18:22:00,
2013-10-26 14:28:00,54.6,35.8,30.00,WNW,293,0.0,0.0,49,0.00,,,0.00,WUHU216HW,2013-10-26 18:28:00,
2013-10-26 14:33:00,54.6,35.8,30.00,SE,135,0.0,5.1,49,0.00,,,0.00,WUHU216HW,2013-10-26 18:33:00,
2013-10-26 14:39:00,54.6,35.2,30.00,West,270,0.0,5.1,48,0.00,,,0.00,WUHU216HW,2013-10-26 18:39:00,
2013-10-26 14:45:00,54.3,34.9,30.00,NNW,338,0.0,2.9,48,0.00,,,0.00,WUHU216HW,2013-10-26 18:45:00,
2013-10-26 14:50:00,54.1,34.7,30.00,WSW,248,0.0,0.0,48,0.00,,,0.00,WUHU216HW,2013-10-26 18:50:00,
2013-10-26 14:55:00,53.7,34.4,29.99,SSE,158,0.0,0.0,48,0.00,,,0.00,WUHU216HW,2013-10-26 18:55:00,
2013-10-26 15:01:00,53.6,34.3,29.98,NW,315,0.0,0.0,48,0.00,,,0.00,WUHU216HW,2013-10-26 19:01:00,
2013-10-26 15:07:00,53.4,34.1,29.97,West,270,0.0,5.1,48,0.00,,,0.00,WUHU216HW,2013-10-26 19:07:00,
2013-10-26 15:12:00,53.2,33.9,29.97,South,180,0.0,5.1,48,0.00,,,0.00,WUHU216HW,2013-10-26 19:12:00,
2013-10-26 15:17:00,52.7,33.4,29.97,WSW,248,0.0,0.0,48,0.00,,,0.00,WUHU216HW,2013-10-26 19:17:00,
2013-10-26 15:23:00,52.3,33.1,29.96,NW,315,0.0,0.0,48,0.00,,,0.00,WUHU216HW,2013-10-26 19:23:00,
2013-10-26 15:29:00,52.1,33.0,29.97,WNW,293,0.0,2.4,48,0.00,,,0.00,WUHU216HW,2013-10-26 19:29:00,
2013-10-26 15:34:00,51.8,32.6,29.97,WSW,248,0.0,2.4,48,0.00,,,0.00,WUHU216HW,2013-10-26 19:34:00,
2013-10-26 15:40:00,51.8,32.6,29.96,North,0,0.0,3.8,48,0.00,,,0.00,WUHU216HW,2013-10-26 19:40:00,
2013-10-26 15:46:00,51.8,32.6,29.96,WNW,293,0.0,3.8,48,0.00,,,0.00,WUHU216HW,2013-10-26 19:46:00,
2013-10-26 15:51:00,51.9,33.4,29.96,South,180,4.2,4.2,49,0.00,,,0.00,WUHU216HW,2013-10-26 19:51:00,
2013-10-26 15:57:00,52.1,33.0,29.96,NE,45,0.0,4.2,48,0.00,,,0.00,WUHU216HW,2013-10-26 19:57:00,
2013-10-26 16:03:00,51.9,32.8,29.97,SW,225,0.0,0.0,48,0.00,,,0.00,WUHU216HW,2013-10-26 20:03:00,
2013-10-26 16:09:00,51.8,32.1,29.97,WNW,293,0.0,0.0,47,0.00,,,0.00,WUHU216HW,2013-10-26 20:09:00,
2013-10-26 16:15:00,51.6,32.5,29.96,WNW,293,0.0,0.0,48,0.00,,,0.00,WUHU216HW,2013-10-26 20:15:00,
2013-10-26 16:21:00,51.2,32.1,29.96,SSE,158,0.0,0.0,48,0.00,,,0.00,WUHU216HW,2013-10-26 20:21:00,
2013-10-26 16:26:00,51.0,32.0,29.96,NNW,338,0.0,0.0,48,0.00,,,0.00,WUHU216HW,2013-10-26 20:26:00,
2013-10-26 16:31:00,50.9,31.8,29.96,ENE,68,0.0,0.0,48,0.00,,,0.00,WUHU216HW,2013-10-26 20:31:00,
2013-10-26 16:37:00,50.7,31.7,29.96,NNE,23,0.0,0.0,48,0.00,,,0.00,WUHU216HW,2013-10-26 20:37:00,
2013-10-26 16:42:00,50.7,31.7,29.96,WSW,248,0.0,0.0,48,0.00,,,0.00,WUHU216HW,2013-10-26 20:42:00,
2013-10-26 16:53:00,50.3,31.3,29.95,WSW,248,0.0,0.0,48,0.00,,,0.00,WUHU216HW,2013-10-26 20:53:00,
2013-10-26 16:58:00,50.3,31.3,29.96,WNW,293,0.0,0.0,48,0.00,,,0.00,WUHU216HW,2013-10-26 20:58:00,
2013-10-26 17:04:00,50.1,31.7,29.95,WNW,293,0.0,0.0,49,0.00,,,0.00,WUHU216HW,2013-10-26 21:04:00,
2013-10-26 17:09:00,50.1,31.2,29.95,WNW,293,5.3,5.3,48,0.00,,,0.00,WUHU216HW,2013-10-26 21:09:00,
2013-10-26 17:14:00,50.0,31.0,29.95,NNW,338,0.0,5.3,48,0.00,,,0.00,WUHU216HW,2013-10-26 21:14:00,
2013-10-26 17:19:00,49.8,30.8,29.95,NNE,23,0.0,5.3,48,0.00,,,0.00,WUHU216HW,2013-10-26 21:19:00,
2013-10-26 17:24:00,49.8,30.8,29.95,NNE,23,0.0,0.0,48,0.00,,,0.00,WUHU216HW,2013-10-26 21:24:00,
2013-10-26 17:29:00,49.6,30.8,29.95,WNW,293,0.0,0.0,48,0.00,,,0.00,WUHU216HW,2013-10-26 21:29:00,
2013-10-26 17:34:00,49.8,31.4,29.95,WSW,248,0.0,0.0,49,0.00,,,0.00,WUHU216HW,2013-10-26 21:34:00,
2013-10-26 17:40:00,49.6,31.2,29.95,North,0,0.0,0.0,49,0.00,,,0.00,WUHU216HW,2013-10-26 21:40:00,
2013-10-26 17:46:00,49.6,31.2,29.94,West,270,0.0,0.0,49,0.00,,,0.00,WUHU216HW,2013-10-26 21:46:00,
2013-10-26 17:51:00,49.2,30.9,29.94,WNW,293,0.0,0.0,49,0.00,,,0.00,WUHU216HW,2013-10-26 21:51:00,
2013-10-26 17:56:00,49.2,30.9,29.94,WNW,293,0.0,1.7,49,0.00,,,0.00,WUHU216HW,2013-10-26 21:56:00,
2013-10-26 18:01:00,49.2,30.3,29.94,WSW,248,0.0,1.7,48,0.00,,,0.00,WUHU216HW,2013-10-26 22:01:00,
2013-10-26 18:07:00,49.2,30.9,29.94,NW,315,0.0,0.0,49,0.00,,,0.00,WUHU216HW,2013-10-26 22:07:00,
2013-10-26 18:13:00,49.2,30.9,29.94,SSW,203,0.0,0.0,49,0.00,,,0.00,WUHU216HW,2013-10-26 22:13:00,
2013-10-26 18:19:00,49.2,30.9,29.94,SW,225,0.0,0.0,49,0.00,,,0.00,WUHU216HW,2013-10-26 22:19:00,
2013-10-26 18:24:00,49.1,30.7,29.94,WSW,248,0.0,0.0,49,0.00,,,0.00,WUHU216HW,2013-10-26 22:24:00,
2013-10-26 18:30:00,49.1,30.7,29.94,NW,315,0.0,0.0,49,0.00,,,0.00,WUHU216HW,2013-10-26 22:30:00,
2013-10-26 18:35:00,49.1,30.7,29.94,SW,225,0.0,4.6,49,0.00,,,0.00,WUHU216HW,2013-10-26 22:35:00,
2013-10-26 18:41:00,49.1,30.7,29.95,SW,225,0.0,4.6,49,0.00,,,0.00,WUHU216HW,2013-10-26 22:41:00,
2013-10-26 18:46:00,48.9,30.5,29.95,SW,225,0.0,0.0,49,0.00,,,0.00,WUHU216HW,2013-10-26 22:46:00,
2013-10-26 18:52:00,48.9,30.5,29.95,West,270,0.0,0.0,49,0.00,,,0.00,WUHU216HW,2013-10-26 22:52:00,
2013-10-26 18:57:00,48.7,30.3,29.96,WSW,248,0.0,0.0,49,0.00,,,0.00,WUHU216HW,2013-10-26 22:57:00,
2013-10-26 19:03:00,48.7,30.3,29.96,West,270,0.0,0.0,49,0.00,,,0.00,WUHU216HW,2013-10-26 23:03:00,
2013-10-26 19:09:00,48.7,30.9,29.96,West,270,0.0,0.0,50,0.00,,,0.00,WUHU216HW,2013-10-26 23:09:00,
2013-10-26 19:14:00,48.5,30.7,29.97,SW,225,0.0,0.0,50,0.00,,,0.00,WUHU216HW,2013-10-26 23:14:00,
2013-10-26 19:19:00,48.5,30.7,29.97,South,180,0.0,0.0,50,0.00,,,0.00,WUHU216HW,2013-10-26 23:19:00,
2013-10-26 19:24:00,48.5,30.7,29.97,SW,225,0.0,3.8,50,0.00,,,0.00,WUHU216HW,2013-10-26 23:24:00,
2013-10-26 19:30:00,48.5,30.7,29.97,West,270,0.0,3.8,50,0.00,,,0.00,WUHU216HW,2013-10-26 23:30:00,
2013-10-26 19:35:00,48.5,30.7,29.97,SW,225,0.0,0.0,50,0.00,,,0.00,WUHU216HW,2013-10-26 23:35:00,
2013-10-26 19:41:00,48.3,31.0,29.97,SW,225,0.0,0.0,51,0.00,,,0.00,WUHU216HW,2013-10-26 23:41:00,
2013-10-26 19:46:00,48.3,30.7,29.97,South,180,3.1,3.1,51,0.00,,,0.00,WUHU216HW,2013-10-26 23:46:00,
2013-10-26 19:52:00,48.3,31.0,29.98,WSW,248,0.0,3.1,51,0.00,,,0.00,WUHU216HW,2013-10-26 23:52:00,
2013-10-26 19:57:00,48.3,31.0,29.97,West,270,0.0,3.1,51,0.00,,,0.00,WUHU216HW,2013-10-26 23:57:00,
2013-10-26 20:02:00,48.3,31.4,29.98,SSW,203,0.0,3.3,52,0.00,,,0.00,WUHU216HW,2013-10-27 00:02:00,
2013-10-26 20:07:00,48.3,31.4,29.98,West,270,0.0,6.4,52,0.00,,,0.00,WUHU216HW,2013-10-27 00:07:00,
2013-10-26 20:12:00,48.3,31.4,29.99,WNW,293,3.3,6.4,52,0.00,,,0.00,WUHU216HW,2013-10-27 00:12:00,
2013-10-26 20:17:00,48.3,31.9,29.98,WSW,248,5.5,5.5,53,0.00,,,0.00,WUHU216HW,2013-10-27 00:17:00,
2013-10-26 20:23:00,48.3,31.9,29.99,NW,315,0.0,5.5,53,0.00,,,0.00,WUHU216HW,2013-10-27 00:23:00,
2013-10-26 20:29:00,48.3,32.4,29.99,NW,315,0.0,0.0,54,0.00,,,0.00,WUHU216HW,2013-10-27 00:29:00,
2013-10-26 20:34:00,48.3,32.8,29.99,WSW,248,0.0,3.1,55,0.00,,,0.00,WUHU216HW,2013-10-27 00:34:00,
2013-10-26 20:39:00,48.3,32.8,29.99,West,270,0.0,3.1,55,0.00,,,0.00,WUHU216HW,2013-10-27 00:39:00,
2013-10-26 20:45:00,48.0,32.5,29.99,WSW,248,0.0,2.9,55,0.00,,,0.00,WUHU216HW,2013-10-27 00:45:00,
2013-10-26 20:50:00,48.0,32.5,29.99,WNW,293,0.0,2.9,55,0.00,,,0.00,WUHU216HW,2013-10-27 00:50:00,
2013-10-26 20:55:00,48.0,32.5,29.99,WSW,248,0.0,0.0,55,0.00,,,0.00,WUHU216HW,2013-10-27 00:55:00,
2013-10-26 21:00:00,48.0,33.0,29.99,SE,135,0.0,0.0,56,0.00,,,0.00,WUHU216HW,2013-10-27 01:00:00,
2013-10-26 21:06:00,48.0,33.0,29.99,SE,135,0.0,3.1,56,0.00,,,0.00,WUHU216HW,2013-10-27 01:06:00,
2013-10-26 21:11:00,47.8,32.8,29.99,West,270,0.0,3.1,56,0.00,,,0.00,WUHU216HW,2013-10-27 01:11:00,
2013-10-26 21:16:00,48.0,33.0,29.99,WNW,293,0.0,5.8,56,0.00,,,0.00,WUHU216HW,2013-10-27 01:16:00,
2013-10-26 21:22:00,48.0,33.0,29.99,NNW,338,0.0,5.8,56,0.00,,,0.00,WUHU216HW,2013-10-27 01:22:00,
2013-10-26 21:27:00,48.0,33.0,29.99,SW,225,3.5,3.5,56,0.00,,,0.00,WUHU216HW,2013-10-27 01:27:00,
2013-10-26 21:33:00,48.0,33.0,29.99,NW,315,0.0,3.5,56,0.00,,,0.00,WUHU216HW,2013-10-27 01:33:00,
2013-10-26 21:39:00,48.0,33.0,29.99,NW,315,0.0,3.3,56,0.00,,,0.00,WUHU216HW,2013-10-27 01:39:00,
2013-10-26 21:45:00,48.0,33.4,29.99,West,270,4.4,4.4,57,0.00,,,0.00,WUHU216HW,2013-10-27 01:45:00,
2013-10-26 21:50:00,48.0,33.4,29.99,WSW,248,0.0,4.4,57,0.00,,,0.00,WUHU216HW,2013-10-27 01:50:00,
2013-10-26 21:55:00,47.8,33.2,29.99,SW,225,0.0,4.4,57,0.00,,,0.00,WUHU216HW,2013-10-27 01:55:00,
2013-10-26 22:00:00,47.8,33.2,29.99,SW,225,3.5,3.5,57,0.00,,,0.00,WUHU216HW,2013-10-27 02:00:00,
2013-10-26 22:05:00,47.6,33.1,30.00,North,0,0.0,3.5,57,0.00,,,0.00,WUHU216HW,2013-10-27 02:05:00,
2013-10-26 22:10:00,47.3,32.7,30.00,NNE,23,0.0,3.5,57,0.00,,,0.00,WUHU216HW,2013-10-27 02:10:00,
2013-10-26 22:15:00,47.1,32.5,30.00,WNW,293,0.0,0.0,57,0.00,,,0.00,WUHU216HW,2013-10-27 02:15:00,
2013-10-26 22:20:00,47.1,33.0,30.00,West,270,0.0,0.0,58,0.00,,,0.00,WUHU216HW,2013-10-27 02:20:00,
2013-10-26 22:25:00,47.1,33.0,30.00,WSW,248,0.0,0.0,58,0.00,,,0.00,WUHU216HW,2013-10-27 02:25:00,
2013-10-26 22:31:00,47.1,33.0,30.01,West,270,4.4,4.4,58,0.00,,,0.00,WUHU216HW,2013-10-27 02:31:00,
2013-10-26 22:37:00,47.1,33.5,30.01,SW,225,0.0,4.4,59,0.00,,,0.00,WUHU216HW,2013-10-27 02:37:00,
2013-10-26 22:42:00,47.1,33.5,30.01,SSW,203,0.0,4.4,59,0.00,,,0.00,WUHU216HW,2013-10-27 02:42:00,
2013-10-26 22:47:00,47.1,33.5,30.01,SW,225,5.5,5.5,59,0.00,,,0.00,WUHU216HW,2013-10-27 02:47:00,
2013-10-26 22:53:00,46.9,33.3,30.01,SSW,203,0.0,5.5,59,0.00,,,0.00,WUHU216HW,2013-10-27 02:53:00,
2013-10-26 22:58:00,46.9,33.3,30.01,SW,225,4.2,5.5,59,0.00,,,0.00,WUHU216HW,2013-10-27 02:58:00,
2013-10-26 23:03:00,46.5,32.9,30.01,WSW,248,0.0,4.2,59,0.00,,,0.00,WUHU216HW,2013-10-27 03:03:00,
2013-10-26 23:08:00,46.5,32.9,30.01,WNW,293,0.0,4.2,59,0.00,,,0.00,WUHU216HW,2013-10-27 03:08:00,
2013-10-26 23:13:00,46.5,33.4,30.02,North,0,0.0,0.0,60,0.00,,,0.00,WUHU216HW,2013-10-27 03:13:00,
2013-10-26 23:19:00,46.4,33.2,30.01,WSW,248,0.0,0.0,60,0.00,,,0.00,WUHU216HW,2013-10-27 03:19:00,
2013-10-26 23:24:00,46.5,33.4,30.01,NW,315,0.0,0.0,60,0.00,,,0.00,WUHU216HW,2013-10-27 03:24:00,
2013-10-26 23:29:00,46.5,33.4,30.02,SW,225,0.0,0.0,60,0.00,,,0.00,WUHU216HW,2013-10-27 03:29:00,
2013-10-26 23:35:00,46.4,33.2,30.02,SW,225,0.0,0.0,60,0.00,,,0.00,WUHU216HW,2013-10-27 03:35:00,
2013-10-26 23:40:00,46.4,33.2,30.02,NW,315,0.0,0.0,60,0.00,,,0.00,WUHU216HW,2013-10-27 03:40:00,
2013-10-26 23:45:00,46.2,33.4,30.02,SSW,203,0.0,0.0,61,0.00,,,0.00,WUHU216HW,2013-10-27 03:45:00,
2013-10-26 23:51:00,46.2,33.4,30.02,SW,225,0.0,0.0,61,0.00,,,0.00,WUHU216HW,2013-10-27 03:51:00,
2013-10-26 23:56:00,46.2,33.4,30.01,NW,315,0.0,0.0,61,0.00,,,0.00,WUHU216HW,2013-10-27 03:56:00,